This is the latest recevied weather packets stored in our database for station/object N8AMF. If no packets are shown the sender has not sent any weather packets the latest 10 day(s).
| Time | Temp. | Humidity | Pressure | Rain* | Wind** | Luminosity | Snow |
|---|---|---|---|---|---|---|---|
| 1777984851 | 16.67° C | 72% | 1005.1 hPa | 0 mm | - | 146 W/m² | - |
| 1777984548 | 16.67° C | 71% | 1004.8 hPa | 0 mm | - | 132 W/m² | - |
| 1777984244 | 16.67° C | 71% | 1004.8 hPa | 0 mm | - | 113 W/m² | - |
| 1777983941 | 16.67° C | 71% | 1004.8 hPa | 0 mm | - | 97 W/m² | - |
| 1777983638 | 16.67° C | 70% | 1004.8 hPa | 0 mm | - | 71 W/m² | - |
| 1777983335 | 16.67° C | 70% | 1004.7 hPa | 0 mm | - | 51 W/m² | - |
| 1777983032 | 16.67° C | 71% | 1004.6 hPa | 0 mm | - | 44 W/m² | - |
| 1777982728 | 16.67° C | 70% | 1004.3 hPa | 0 mm | - | 44 W/m² | - |
| 1777982423 | 16.67° C | 71% | 1004.2 hPa | 0 mm | - | 41 W/m² | - |
| 1777982118 | 16.67° C | 71% | 1003.9 hPa | 0 mm | - | 43 W/m² | - |
| 1777981816 | 16.67° C | 71% | 1004 hPa | 0 mm | - | 47 W/m² | - |
| 1777981513 | 16.67° C | 71% | 1003.6 hPa | 0 mm | - | 55 W/m² | - |
| 1777981209 | 16.11° C | 72% | 1003.4 hPa | 0 mm | - | 55 W/m² | - |
| 1777980906 | 16.67° C | 71% | 1002.9 hPa | 0 mm | - | 52 W/m² | - |
| 1777980601 | 16.67° C | 71% | 1003.1 hPa | 0 mm | - | 39 W/m² | - |
| 1777980299 | 16.67° C | 70% | 1003.1 hPa | 0 mm | - | 29 W/m² | - |
| 1777979996 | 16.67° C | 70% | 1003 hPa | 0 mm | - | 27 W/m² | - |
| 1777979696 | 16.67° C | 70% | 1002.9 hPa | 0 mm | - | 26 W/m² | - |
| 1777979392 | 16.67° C | 69% | 1003.2 hPa | 0 mm | - | 25 W/m² | - |
| 1777979089 | 16.67° C | 69% | 1003.1 hPa | 0 mm | - | 23 W/m² | - |
| 1777978786 | 16.67° C | 68% | 1003 hPa | 0 mm | - | 19 W/m² | - |
| 1777978483 | 17.22° C | 68% | 1002.9 hPa | 0 mm | - | 16 W/m² | - |
| 1777978178 | 16.67° C | 68% | 1003 hPa | 0 mm | - | 13 W/m² | - |
| 1777977876 | 16.67° C | 68% | 1003.2 hPa | 0 mm | - | 10 W/m² | - |
| 1777977572 | 17.22° C | 68% | 1003.3 hPa | 0 mm | - | 7 W/m² | - |
* Rain latest hour (hover to see other rain measurements)
** Current wind speed in m/s (hover to see current wind gust speed)